Home > Weather > The Bottom > Past weeks

Flag for Caribbean Netherlands Past Weather in The Bottom, Saba, Caribbean Netherlands — Yesterday and Last 2 Weeks

Now
86 °F

Warm.


Feels Like: 93 °F
Forecast: N/A
Wind: 18 mph from East

Location: Roosevelt Airport / Saint Eustatius

Current Time: May 24, 2016 at 3:49:42 PM

Latest Report: May 24, 2016 at 2:55 PM


Visibility: N/A

Pressure: 30.07 "Hg

Humidity: 66%

Dew Point: 73 °F

Location of The BottomLocation

Past Weather in The Bottom — Graph

°F

The Bottom Temperature Yesterday

Maximum temperature yesterday: 88 °F (at 9:55 AM)
Minimum temperature yesterday: 81 °F (at 12:55 AM)
Average temperature yesterday: 84 °F

High & Low Weather Summary for the Past Weeks

 TemperatureHumidityPressure
High90 °F (May 22, 12:55 PM)94% (May 13, 4:55 AM)30.12 "Hg (May 13, 4:55 AM)
Low75 °F (May 13, 4:55 AM)55% (May 22, 12:55 PM)29.98 "Hg (May 9, 2:55 PM)
Average82 °F75%30.05 "Hg
* Reported May 9 1:55 PM — May 24 1:55 PM, The Bottom, Weather by CustomWeather, © 2016

Note: Actual official high and low records may vary slightly from our data, if they occured in-between our weather recording intervals... More about our weather records

Advertising

The Bottom Weather History for the Previous 24 Hours

Scroll right to see more
 ConditionsComfort  
Time TempWeatherWind HumidityBarometerVisibility
1:55 PM
Tue, May 24
88 °FWarm.15 mph62%30.09 "HgN/A
12:55 PM88 °FWarm.17 mph66%30.09 "HgN/A
11:55 AM88 °FWarm.17 mph62%30.09 "HgN/A
10:55 AM88 °FWarm.15 mph62%30.12 "HgN/A
9:55 AM86 °FWarm.15 mph66%30.12 "HgN/A
8:55 AM84 °FWarm.12 mph74%30.12 "HgN/A
7:55 AM84 °FWarm.14 mph70%30.12 "HgN/A
6:55 AM82 °FWarm.10 mph79%30.12 "HgN/A
5:55 AM81 °FWarm.12 mph79%30.09 "HgN/A
4:55 AM81 °FWarm.10 mph79%30.07 "HgN/A
3:55 AM81 °FWarm.10 mph79%30.07 "HgN/A
2:55 AM81 °FWarm.10 mph79%30.09 "HgN/A
1:55 AM81 °FWarm.10 mph79%30.09 "HgN/A
12:55 AM81 °FWarm.10 mph79%30.09 "HgN/A
11:55 PM
Mon, May 23
81 °FWarm.10 mph79%30.09 "HgN/A
10:55 PM81 °FWarm.9 mph79%30.09 "HgN/A
9:55 PM81 °FWarm.15 mph79%30.09 "HgN/A
8:55 PM81 °FWarm.13 mph79%30.09 "HgN/A
7:55 PM82 °FWarm.12 mph79%30.07 "HgN/A
6:55 PM82 °FWarm.12 mph79%30.04 "HgN/A
5:55 PM84 °FWarm.8 mph74%30.04 "HgN/A
4:55 PM86 °FWarm.14 mph70%30.01 "HgN/A
3:55 PM86 °FWarm.15 mph66%30.01 "HgN/A
Weather by CustomWeather, © 2016

See weather overviewHow to use our weather pages